Weather in Marawila

Sri Lanka     7°22′33″N   80°10′02″E
temp.,
°C
wind,
m/s
gust,
m/s
humid.,
%
clouds,
%
prec.,
mm/h
press.,
hPa
HPBL,
m
21 january, fri
fri2123:30+18ene128179 0.0 101240
02:30+17ese1194100 0.0 101112
05:30+16e119655 0.0 101211
08:30+24ene125999 0.0 1014246
11:30+32n342380 0.0 10131532
14:30+33n452747 0.0 10091938
17:30+29nne264294 0.0 1009466
20:30+21n12795 0.0 101247
22 january, sat
sat2223:30+18e118391 0.0 101218
02:30+17e1189100 0.0 101011
05:30+16ese118585 0.0 101011
08:30+23nne01476 0.0 1012224
11:30+34nne251587 0.0 10101745
14:30+35nne44196 0.0 10062415
17:30+30nne373477 0.0 1007532
20:30+21sse117350 0.0 101117
23 january, sun
sun2323:30+19se127934 0.0 101129
02:30+18e118131 0.0 100912
05:30+17ese118536 0.0 100911
08:30+24ene015376 0.0 1012238
11:30+34n142197 0.0 10101863
14:30+34nne4320100 0.0 10062573
17:30+29nne2640100 0.0 1007345
20:30+20ssw1179100 0.0 101113
24 january, mon
mon2423:30+19ese118816 0.0 101111
02:30+18ese119370 0.0 100913
05:30+17ese1188100 0.0 101011
08:30+24e1156100 0.0 1012237
11:30+33nne242183 0.0 10091706
14:30+35nne441740 0.0 10062468
17:30+30nne373399 0.0 1006479
20:30+21s2576100 0.0 1010144
25 january, tue
tue2523:30+19se118729 0.0 101117
02:30+18e11887 0.0 100923
05:30+17e118996 0.0 100914
08:30+24ene1257100 0.0 1010260
11:30+34nne24181 0.0 10081849
14:30+35nne442068 0.0 10052306
17:30+30ne473466 0.0 1005796
20:30+22ese1263100 0.0 100946